This is the latest recevied weather packets stored in our database for station/object KF5WCW-1. If no packets are shown the sender has not sent any weather packets the latest 10 day(s).
| Time | Temp. | Humidity | Pressure | Rain* | Wind** | Luminosity | Snow |
|---|---|---|---|---|---|---|---|
| 1777827674 | 13.89° C | 33% | 0 hPa | 0 mm | - | - | - |
| 1777827374 | 13.33° C | 32% | 0 hPa | 0 mm | - | - | - |
| 1777827074 | 13.33° C | 34% | 0 hPa | 0 mm | - | - | - |
| 1777826774 | 12.78° C | 36% | 0 hPa | 0 mm | - | - | - |
| 1777826474 | 12.22° C | 36% | 0 hPa | 0 mm | - | - | - |
| 1777826174 | 12.78° C | 38% | 0 hPa | 0 mm | - | - | - |
| 1777825874 | 12.22° C | 39% | 0 hPa | 0 mm | - | - | - |
| 1777825574 | 12.22° C | 41% | 0 hPa | 0 mm | - | - | - |
| 1777825274 | 11.67° C | 42% | 0 hPa | 0 mm | - | - | - |
| 1777824974 | 11.67° C | 43% | 0 hPa | 0 mm | - | - | - |
| 1777824674 | 11.11° C | 45% | 0 hPa | 0 mm | - | - | - |
| 1777824374 | 10° C | 45% | 0 hPa | 0 mm | - | - | - |
| 1777824074 | 10° C | 47% | 0 hPa | 0 mm | - | - | - |
| 1777823774 | 9.44° C | 46% | 0 hPa | 0 mm | - | - | - |
| 1777823474 | 9.44° C | 47% | 0 hPa | 0 mm | - | - | - |
| 1777823174 | 8.89° C | 48% | 0 hPa | 0 mm | - | - | - |
| 1777822874 | 8.89° C | 49% | 0 hPa | 0 mm | - | - | - |
| 1777822574 | 8.89° C | 51% | 0 hPa | 0 mm | - | - | - |
| 1777822274 | 8.33° C | 50% | 0 hPa | 0 mm | - | - | - |
| 1777821974 | 7.78° C | 51% | 0 hPa | 0 mm | - | - | - |
| 1777821674 | 7.78° C | 56% | 0 hPa | 0 mm | - | - | - |
| 1777821374 | 7.22° C | 57% | 0 hPa | 0 mm | - | - | - |
| 1777821074 | 7.22° C | 57% | 0 hPa | 0 mm | - | - | - |
| 1777820774 | 7.22° C | 63% | 0 hPa | 0 mm | - | - | - |
| 1777820474 | 6.67° C | 65% | 0 hPa | 0 mm | - | - | - |
* Rain latest hour (hover to see other rain measurements)
** Current wind speed in m/s (hover to see current wind gust speed)